Location: �clusier
(49.9361°N, 2.7869°E)
Time: 00:38:41
(UTC+00:00)

Cosmos 1331 Rocket - Pass Details

Date: 01 November 2021
Orbit: 749 x 778 km, 74.0° (Epoch: 30 November)

Event Time Altitude Azimuth Distance (km) Brightness Sun altitude
Exits shadow 04:35:25 - 339° (NNW) 3,169 7.0 -20.2°
Reaches altitude 10° 04:37:43 10° 346° (NNW) 2,315 6.3 -19.8°
Maximum altitude 04:42:45 45° 59° (ENE) 1,051 5.1 -19.0°
Drops below altitude 10° 04:47:47 10° 131° (SE) 2,318 7.2 -18.2°
Sets 04:50:16 0° 138° (SE) 3,245 7.9 -17.8°
